DW4240 Weather Reports


Display with metric or nautical units.
time (UTC)temp
F
wind
direction
speed
MPH
gust
MPH
rain 1hr
in
rain 24hr
in
rain mn
in
humidity
%
barometer
mb
20260506061531 48 0 0.0 2.0 0.11 0.80 0.77 96 1004.4
20260506044528 49 0 0.0 2.0 0.08 0.67 0.59 96 1004.5
20260506043028 49 0 0.0 2.0 0.08 0.65 0.57 96 1004.5
20260506041544 50 0 0.0 0.0 0.08 0.62 0.55 96 1004.7
20260506040029 50 0 0.0 2.0 0.08 0.60 0.52 96 1004.7
20260506034543 50 0 0.0 2.0 0.09 0.59 0.51 96 1004.8
20260506033029 50 0 0.0 2.0 0.10 0.57 0.48 96 1004.8
20260506031529 50 0 0.0 2.0 0.11 0.55 0.46 96 1004.8
20260506030028 50 0 0.0 2.0 0.14 0.52 0.44 96 1004.9
20260506024529 50 0 0.0 2.0 0.17 0.50 0.41 96 1005.0
20260506023030 50 0 0.0 2.0 0.19 0.47 0.38 95 1005.2
20260506021529 50 0 0.0 2.0 0.19 0.43 0.34 95 1005.4
20260506020028 50 0 0.0 0.0 0.18 0.38 0.29 95 1005.5
20260506014528 50 0 0.0 2.0 0.13 0.32 0.23 95 1005.6
20260506013041 51 36 0.0 3.0 0.11 0.26 0.18 95 1005.5
20260506011528 51 0 0.0 3.0 0.08 0.22 0.14 95 1005.6
20260506010032 51 0 0.0 2.0 0.08 0.20 0.11 95 1005.7
20260506004527 51 0 0.0 2.0 0.07 0.18 0.09 95 1005.6
20260506003030 51 0 0.0 4.0 0.06 0.15 0.07 95 1005.8
20260506001529 51 0 0.0 3.0 0.05 0.14 0.05 95 1005.8
20260506000029 51 0 0.0 2.0 0.03 0.11 0.03 94 1005.9
20260505234529 52 0 0.0 2.0 0.01 0.11 0.01 95 1006.2
20260505233030 52 40 0.0 3.0 0.00 0.10 0.00 94 1006.4
20260505231531 52 0 0.0 5.0 0.00 0.09 0.00 94 1006.6
20260505230027 52 0 0.0 3.0 0.00 0.09 0.00 94 1006.6
20260505224530 52 0 0.0 3.0 0.00 0.09 0.00 94 1006.8
20260505223037 52 0 0.0 3.0 0.00 0.09 0.00 94 1006.8
20260505221528 52 0 0.0 4.0 0.00 0.09 0.00 93 1006.9
20260505220047 52 0 0.0 4.0 0.00 0.09 0.00 93 1007.0
20260505214535 52 0 0.0 2.0 0.00 0.12 0.09 93 1007.0
20260505213033 52 0 0.0 3.0 0.00 0.12 0.09 93 1007.2
20260505211531 52 0 0.0 4.0 0.00 0.12 0.09 93 1007.3
20260505210030 53 40 0.0 4.0 0.00 0.12 0.09 93 1007.3
20260505204530 53 0 0.0 3.0 0.00 0.16 0.09 93 1007.4
20260505203029 53 0 0.0 3.0 0.00 0.16 0.09 93 1007.3
20260505201528 53 0 0.0 3.0 0.00 0.16 0.09 93 1007.3
20260505200036 53 36 0.0 3.0 0.00 0.16 0.09 92 1007.1
20260505194530 53 0 0.0 3.0 0.00 0.25 0.09 92 1007.2
20260505193028 54 0 0.0 5.0 0.00 0.25 0.09 92 1007.2
20260505191529 54 0 0.0 2.0 0.00 0.25 0.09 92 1007.1
20260505190026 54 38 0.0 2.0 0.00 0.25 0.09 92 1007.1
20260505184530 54 38 0.0 3.0 0.00 0.40 0.09 91 1007.2
20260505183034 55 0 0.0 3.0 0.00 0.40 0.09 91 1007.3
20260505181529 55 0 0.0 2.0 0.00 0.40 0.09 91 1007.2
20260505180029 55 0 0.0 2.0 0.00 0.40 0.09 91 1007.3
20260505174530 55 38 0.0 4.0 0.00 0.40 0.09 90 1007.3
20260505173028 55 0 0.0 3.0 0.00 0.40 0.09 90 1007.3
20260505171528 56 27 0.0 3.0 0.00 0.40 0.09 89 1007.3
20260505170031 56 34 0.0 9.0 0.00 0.40 0.09 89 1007.5
20260505164530 56 0 0.0 3.0 0.00 0.40 0.09 89 1007.6
20260505163028 57 40 0.0 5.0 0.00 0.40 0.09 88 1007.4
20260505161539 58 34 0.0 4.0 0.00 0.40 0.09 88 1007.5
20260505153030 59 37 1.0 5.0 0.00 0.40 0.09 86 1007.6
20260505151529 59 0 1.0 4.0 0.00 0.40 0.09 89 1007.6
20260505124528 59 26 0.0 4.0 0.00 0.40 0.09 93 1008.3
20260505123030 59 0 0.0 2.0 0.00 0.40 0.09 92 1008.5
20260505121534 60 0 0.0 2.0 0.00 0.40 0.09 90 1008.4
20260505120030 60 0 0.0 1.0 0.00 0.40 0.09 88 1008.3
20260505114530 60 0 0.0 4.0 0.00 0.40 0.09 88 1008.3
20260505113028 61 0 0.0 2.0 0.00 0.40 0.09 91 1008.5
20260505111527 61 0 0.0 5.0 0.00 0.40 0.09 87 1008.5
20260505101533 59 0 0.0 1.0 0.00 0.40 0.09 94 1008.8
20260505100034 59 0 0.0 2.0 0.00 0.40 0.09 95 1008.9
20260505094529 58 0 0.0 2.0 0.00 0.40 0.09 96 1008.9
20260505093033 58 0 0.0 2.0 0.00 0.40 0.09 96 1008.9
20260505091533 57 0 0.0 2.0 0.00 0.40 0.09 96 1008.9
20260505090040 57 0 0.0 0.0 0.00 0.40 0.09 96 1009.0
20260505084537 57 0 0.0 3.0 0.00 0.40 0.09 96 1009.1
20260505083027 57 0 0.0 2.0 0.00 0.40 0.09 96 1009.1
20260505081528 57 0 0.0 2.0 0.00 0.40 0.09 96 1009.2
20260505080040 57 0 0.0 0.0 0.00 0.40 0.09 96 1009.2
20260505074528 57 0 0.0 3.0 0.00 0.40 0.08 96 1009.3
20260505073034 57 0 0.0 0.0 0.00 0.40 0.08 96 1009.3
20260505071537 56 0 0.0 0.0 0.01 0.40 0.08 97 1009.3